Temp
-12 -12 -12 -12 -13 -14 -15 -16 -16 -16 -16 -16 -16 -16 -16 -16 -16 -16 -16 -16 -15 -14 -13 -12 -10 -11 -10 -10 -10 -11 -10 -9 -9 -10 -10 -11 -10 -10 -10 -10 -10 -10 -10 -10 -9
-12 -12 -12 -13 -14 -14 -15 -15 -16 -16 -17 -17 -16 -16 -16 -16 -16 -16 -17 -17 -17 -16 -15 -14 -13 -12 -11 -11 -11 -10 -9 -9 -10 -10 -11 -11 -10 -10 -10 -10 -10 -10 -10 -10 -10
-12 -12 -13 -13 -15 -16 -16 -17 -17 -17 -17 -17 -17 -17 -16 -16 -16 -16 -16 -16 -17 -17 -18 -16 -15 -13 -11 -11 -11 -10 -9 -10 -11 -11 -11 -11 -11 -10 -10 -10 -10 -10 -10 -10 -10
-12 -12 -13 -15 -16 -17 -18 -18 -18 -18 -18 -18 -17 -17 -17 -17 -16 -17 -17 -17 -17 -18 -18 -18 -17 -15 -14 -11 -11 -10 -10 -11 -11 -11 -11 -11 -11 -11 -10 -10 -10 -10 -10 -10 -10
-12 -13 -15 -16 -17 -18 -18 -18 -19 -19 -19 -18 -18 -18 -18 -18 -17 -17 -17 -17 -18 -18 -19 -18 -18 -17 -16 -13 -13 -11 -10 -12 -11 -12 -12 -11 -11 -10 -10 -10 -10 -10 -10 -10 -10
-13 -14 -15 -17 -18 -18 -19 -18 -18 -18 -18 -18 -18 -18 -18 -18 -18 -18 -18 -19 -19 -19 -20 -19 -19 -18 -17 -16 -14 -11 -11 -12 -11 -11 -12 -11 -11 -10 -10 -10 -10 -10 -10 -10 -10
-13 -14 -16 -18 -18 -18 -19 -19 -18 -18 -18 -18 -17 -17 -18 -18 -18 -19 -19 -19 -19 -20 -20 -19 -19 -19 -18 -18 -16 -13 -13 -13 -12 -11 -11 -11 -11 -10 -10 -10 -10 -11 -10 -10 -10
-13 -15 -17 -18 -19 -19 -19 -19 -19 -18 -19 -18 -18 -18 -18 -19 -19 -20 -20 -20 -20 -20 -20 -20 -19 -19 -18 -18 -17 -15 -14 -12 -12 -12 -11 -10 -10 -11 -11 -11 -10 -10 -11 -11 -11
-14 -15 -17 -18 -19 -19 -19 -19 -19 -19 -19 -19 -18 -18 -18 -19 -20 -21 -20 -20 -20 -20 -20 -19 -19 -19 -19 -19 -18 -17 -14 -11 -12 -12 -11 -11 -11 -11 -11 -11 -11 -11 -11 -11 -11
-14 -16 -17 -18 -19 -19 -19 -19 -19 -20 -20 -19 -20 -19 -19 -20 -21 -21 -21 -21 -21 -20 -20 -20 -20 -20 -19 -19 -18 -17 -15 -12 -12 -11 -11 -11 -11 -11 -11 -11 -11 -11 -10 -11 -11
-14 -16 -17 -17 -18 -18 -19 -20 -20 -20 -20 -20 -20 -19 -19 -19 -21 -22 -21 -21 -21 -21 -20 -20 -20 -19 -19 -19 -19 -18 -16 -13 -13 -12 -12 -12 -11 -11 -11 -11 -11 -11 -11 -11 -11
-14 -16 -17 -17 -18 -18 -19 -19 -20 -20 -20 -20 -20 -20 -19 -19 -20 -21 -21 -21 -21 -21 -20 -20 -20 -20 -20 -19 -19 -18 -17 -16 -15 -14 -13 -13 -12 -12 -11 -11 -11 -11 -11 -11 -11
-15 -16 -17 -17 -18 -18 -19 -19 -20 -21 -21 -20 -20 -20 -20 -20 -20 -20 -21 -21 -21 -21 -21 -20 -21 -20 -20 -19 -19 -19 -19 -18 -16 -15 -14 -13 -12 -12 -11 -11 -11 -11 -11 -11 -11
-15 -16 -16 -17 -17 -18 -19 -19 -20 -20 -20 -20 -20 -20 -20 -20 -20 -20 -21 -21 -21 -21 -21 -21 -21 -20 -20 -20 -19 -20 -20 -19 -16 -15 -14 -13 -11 -12 -12 -12 -11 -11 -11 -11 -11
-14 -15 -16 -17 -17 -18 -18 -19 -19 -20 -20 -20 -20 -20 -20 -20 -20 -20 -20 -20 -20 -20 -20 -20 -20 -20 -20 -19 -20 -20 -19 -18 -16 -16 -15 -13 -13 -12 -12 -11 -11 -12 -11 -11 -11
-14 -15 -16 -16 -17 -17 -18 -19 -19 -19 -20 -20 -20 -20 -20 -20 -20 -20 -20 -20 -20 -20 -20 -20 -20 -20 -20 -21 -20 -19 -18 -18 -17 -16 -15 -13 -13 -12 -12 -12 -12 -12 -11 -11 -11
-14 -15 -15 -16 -17 -17 -18 -18 -19 -19 -19 -20 -20 -20 -20 -21 -21 -21 -20 -20 -20 -20 -20 -20 -20 -20 -21 -20 -19 -19 -19 -17 -17 -16 -14 -13 -13 -12 -12 -12 -12 -12 -12 -11 -11
-14 -15 -15 -16 -16 -17 -17 -18 -18 -19 -19 -19 -20 -21 -21 -21 -21 -21 -21 -20 -20 -20 -20 -21 -21 -21 -20 -19 -19 -18 -18 -17 -16 -15 -14 -13 -13 -12 -12 -12 -12 -12 -11 -11 -11
-14 -14 -15 -15 -16 -16 -17 -18 -18 -18 -19 -19 -19 -19 -20 -21 -21 -21 -21 -21 -21 -21 -21 -21 -21 -21 -20 -19 -19 -18 -18 -17 -16 -15 -14 -14 -13 -13 -12 -12 -11 -11 -11 -11 -11
-14 -14 -15 -15 -16 -16 -16 -17 -17 -18 -18 -19 -19 -19 -19 -20 -20 -20 -20 -20 -21 -21 -21 -20 -20 -20 -19 -19 -19 -18 -18 -16 -16 -15 -14 -13 -13 -12 -12 -12 -11 -11 -11 -11 -11
-14 -14 -15 -15 -15 -16 -16 -16 -17 -17 -18 -18 -18 -18 -19 -20 -20 -20 -20 -20 -20 -20 -20 -20 -19 -19 -19 -18 -18 -17 -17 -16 -15 -14 -13 -13 -12 -12 -12 -11 -11 -11 -11 -11 -11
-14 -14 -14 -15 -15 -15 -16 -16 -16 -17 -17 -17 -18 -18 -18 -18 -19 -19 -19 -19 -19 -19 -20 -19 -19 -19 -18 -17 -17 -16 -16 -15 -14 -13 -13 -12 -12 -11 -11 -11 -11 -11 -11 -10 -11
-14 -14 -14 -14 -15 -15 -15 -16 -16 -16 -16 -17 -17 -17 -17 -18 -17 -17 -18 -18 -19 -19 -19 -18 -18 -18 -17 -17 -16 -16 -15 -14 -13 -13 -12 -12 -11 -11 -11 -11 -11 -11 -11 -11 -12
-14 -14 -14 -14 -14 -15 -15 -15 -15 -16 -16 -16 -16 -16 -17 -17 -17 -17 -17 -17 -17 -17 -17 -17 -17 -17 -17 -16 -16 -16 -15 -14 -13 -12 -12 -11 -11 -11 -11 -11 -11 -12 -12 -12 -12
-14 -14 -14 -14 -14 -14 -15 -15 -15 -15 -16 -16 -16 -16 -16 -16 -16 -16 -16 -16 -16 -16 -16 -16 -16 -16 -16 -16 -16 -15 -15 -14 -14 -13 -12 -12 -12 -12 -12 -12 -12 -12 -12 -12 -12
-15 -14 -14 -14 -14 -14 -14 -14 -15 -15 -15 -15 -15 -16 -16 -16 -15 -15 -15 -16 -16 -15 -15 -15 -15 -15 -15 -15 -15 -15 -14 -14 -14 -14 -13 -13 -12 -12 -12 -12 -12 -12 -12 -12 -12
-15 -15 -14 -14 -14 -14 -14 -14 -14 -14 -15 -15 -15 -15 -15 -15 -15 -15 -15 -15 -15 -15 -15 -15 -15 -14 -14 -14 -14 -14 -14 -13 -13 -13 -12 -12 -12 -12 -12 -12 -12 -12 -12 -12 -12
Height
5757 5752 5746 5739 5732 5726 5721 5717 5713 5711 5708 5706 5705 5703 5705 5706 5706 5706 5708 5710 5712 5720 5731 5738 5750 5758 5767 5778 5787 5794 5801 5810 5821 5833 5848 5851 5852 5857 5861 5867 5870 5875 5877 5875 5879
5749 5743 5736 5729 5721 5714 5708 5702 5698 5696 5695 5693 5693 5693 5695 5697 5697 5698 5695 5698 5701 5706 5714 5721 5732 5740 5752 5764 5773 5782 5792 5803 5817 5827 5841 5843 5846 5850 5857 5862 5864 5870 5874 5873 5875
5742 5735 5728 5719 5710 5702 5694 5688 5683 5680 5678 5678 5682 5683 5684 5686 5688 5687 5689 5689 5691 5695 5699 5705 5714 5723 5736 5746 5761 5773 5785 5797 5808 5819 5828 5832 5836 5842 5850 5854 5860 5864 5869 5869 5872
5736 5729 5720 5710 5701 5691 5683 5676 5670 5667 5666 5668 5671 5673 5673 5675 5678 5677 5677 5678 5679 5683 5687 5694 5702 5711 5721 5735 5748 5760 5776 5785 5796 5808 5815 5822 5828 5835 5844 5850 5855 5859 5864 5866 5868
5731 5723 5712 5702 5693 5684 5676 5668 5663 5659 5658 5660 5662 5663 5663 5665 5665 5665 5665 5666 5668 5670 5676 5686 5691 5698 5709 5723 5732 5749 5767 5776 5783 5798 5807 5812 5819 5831 5836 5844 5850 5855 5857 5861 5864
5727 5717 5707 5696 5687 5679 5670 5663 5658 5655 5654 5653 5654 5654 5654 5655 5655 5654 5655 5657 5657 5659 5665 5674 5681 5690 5700 5710 5722 5745 5755 5763 5775 5789 5798 5804 5811 5826 5830 5839 5846 5849 5850 5856 5859
5723 5713 5703 5693 5683 5675 5667 5661 5657 5652 5649 5649 5648 5647 5646 5647 5645 5646 5646 5648 5649 5652 5656 5665 5675 5684 5694 5702 5713 5728 5738 5753 5768 5778 5790 5797 5807 5819 5824 5832 5838 5843 5846 5851 5854
5720 5710 5701 5691 5681 5673 5666 5661 5656 5652 5649 5646 5643 5640 5638 5637 5637 5639 5640 5642 5643 5647 5652 5659 5668 5677 5687 5697 5707 5715 5725 5739 5758 5770 5781 5791 5803 5812 5820 5826 5832 5837 5842 5846 5849
5718 5708 5700 5690 5681 5673 5666 5661 5656 5651 5648 5643 5639 5635 5633 5632 5632 5633 5634 5637 5640 5643 5650 5655 5662 5671 5681 5690 5698 5704 5717 5734 5751 5763 5774 5785 5797 5805 5811 5818 5824 5831 5837 5841 5844
5717 5708 5699 5689 5680 5672 5667 5661 5657 5652 5647 5642 5637 5634 5630 5628 5627 5629 5631 5632 5636 5641 5647 5653 5653 5665 5675 5680 5689 5701 5716 5730 5745 5756 5767 5778 5789 5798 5805 5813 5819 5825 5831 5835 5839
5717 5708 5699 5690 5680 5673 5667 5662 5659 5655 5649 5644 5639 5631 5628 5626 5625 5627 5629 5631 5634 5639 5644 5650 5654 5666 5676 5684 5692 5703 5712 5725 5739 5750 5765 5776 5785 5793 5801 5809 5815 5822 5826 5830 5833
5717 5709 5701 5692 5683 5675 5668 5661 5657 5654 5648 5643 5637 5633 5630 5628 5625 5626 5629 5632 5634 5638 5643 5650 5657 5664 5670 5678 5686 5694 5706 5718 5730 5742 5757 5768 5778 5786 5795 5804 5810 5815 5820 5825 5828
5718 5710 5703 5694 5686 5678 5670 5663 5657 5653 5649 5642 5638 5633 5630 5630 5629 5627 5630 5632 5634 5637 5642 5648 5655 5659 5667 5674 5680 5688 5700 5709 5727 5740 5753 5763 5772 5779 5791 5799 5805 5812 5816 5820 5824
5719 5711 5704 5697 5690 5681 5673 5667 5661 5656 5652 5646 5642 5638 5633 5631 5632 5631 5632 5634 5635 5638 5640 5646 5652 5658 5665 5672 5678 5687 5700 5709 5722 5735 5748 5758 5769 5778 5789 5795 5800 5806 5811 5815 5819
5720 5713 5706 5699 5693 5685 5678 5670 5665 5660 5656 5653 5647 5644 5640 5639 5637 5635 5636 5634 5636 5638 5643 5647 5652 5658 5664 5671 5680 5692 5701 5712 5723 5733 5745 5757 5766 5777 5784 5789 5797 5802 5806 5808 5813
5721 5715 5709 5703 5696 5689 5682 5675 5669 5665 5659 5657 5652 5650 5648 5644 5643 5641 5642 5641 5643 5644 5646 5648 5654 5658 5664 5672 5684 5694 5703 5712 5722 5732 5743 5753 5763 5772 5781 5787 5792 5797 5802 5805 5808
5723 5716 5710 5705 5700 5693 5686 5680 5675 5667 5664 5661 5656 5653 5651 5649 5647 5645 5645 5645 5647 5648 5650 5652 5655 5660 5667 5677 5686 5696 5703 5709 5720 5728 5740 5751 5761 5769 5779 5784 5790 5795 5798 5800 5800
5725 5719 5713 5708 5703 5697 5691 5686 5681 5674 5669 5665 5662 5659 5657 5655 5652 5650 5649 5648 5648 5649 5651 5654 5658 5664 5671 5680 5690 5696 5701 5713 5718 5727 5740 5751 5760 5768 5776 5782 5787 5791 5793 5794 5795
5727 5722 5716 5711 5706 5701 5696 5691 5686 5681 5675 5672 5668 5665 5662 5660 5658 5656 5654 5654 5654 5655 5657 5659 5664 5669 5675 5683 5695 5700 5710 5716 5724 5734 5744 5752 5761 5768 5773 5778 5783 5786 5788 5790 5791
5728 5724 5717 5713 5709 5705 5700 5697 5691 5686 5682 5678 5675 5672 5669 5667 5665 5662 5661 5660 5660 5661 5663 5666 5670 5675 5683 5690 5697 5705 5713 5720 5726 5735 5744 5752 5759 5765 5770 5774 5778 5782 5784 5785 5785
5729 5726 5721 5717 5712 5708 5704 5701 5697 5693 5688 5685 5681 5678 5676 5674 5673 5670 5669 5668 5667 5668 5670 5672 5675 5681 5687 5694 5701 5708 5714 5721 5729 5737 5744 5750 5758 5763 5767 5772 5775 5776 5777 5778 5777
5730 5727 5724 5720 5716 5710 5707 5704 5701 5698 5694 5691 5688 5685 5682 5680 5679 5678 5676 5675 5675 5675 5676 5680 5683 5688 5693 5699 5705 5710 5716 5722 5730 5739 5745 5751 5757 5761 5765 5768 5770 5771 5771 5772 5771
5730 5728 5725 5722 5718 5714 5710 5707 5705 5702 5699 5696 5694 5692 5689 5686 5685 5683 5683 5683 5683 5683 5684 5687 5690 5693 5698 5705 5708 5713 5718 5723 5730 5737 5744 5750 5755 5758 5761 5763 5765 5765 5765 5764 5764
5730 5728 5726 5724 5721 5717 5713 5710 5707 5705 5703 5701 5699 5697 5695 5693 5691 5690 5689 5689 5690 5691 5692 5695 5698 5701 5707 5710 5714 5716 5720 5725 5731 5737 5743 5747 5752 5754 5755 5757 5758 5759 5759 5759 5757
5728 5727 5726 5725 5722 5720 5717 5714 5711 5708 5706 5704 5703 5701 5700 5699 5698 5697 5696 5696 5696 5698 5700 5703 5704 5707 5710 5713 5716 5719 5723 5727 5731 5736 5740 5744 5747 5750 5751 5752 5753 5753 5752 5750 5748
5726 5726 5725 5724 5723 5721 5719 5717 5714 5712 5710 5708 5706 5704 5703 5702 5702 5702 5702 5702 5702 5704 5705 5708 5711 5713 5715 5717 5720 5722 5725 5728 5732 5735 5739 5741 5743 5745 5746 5746 5746 5745 5744 5742 5740
5723 5723 5723 5723 5723 5722 5721 5719 5717 5716 5714 5712 5710 5708 5707 5707 5706 5705 5705 5706 5707 5708 5709 5711 5713 5715 5718 5720 5722 5725 5726 5728 5731 5734 5737 5739 5740 5740 5740 5740 5740 5739 5737 5734 5730
Wind_Speed
29 35 41 45 46 45 43 45 47 48 48 39 38 36 36 32 32 34 29 41 57 69 75 79 82 79 77 73 71 68 69 69 68 62 49 46 47 43 39 34 30 23 20 28 23
34 40 47 49 49 46 45 45 44 47 50 45 42 39 39 39 39 34 41 39 40 50 61 70 76 80 81 77 74 72 70 67 61 57 48 48 49 47 42 36 33 27 23 26 25
38 45 50 51 48 45 43 42 42 43 43 43 43 43 37 42 42 43 39 38 43 45 48 58 68 77 82 80 79 74 70 65 58 51 49 53 52 50 45 42 37 34 29 29 27
42 49 50 49 44 41 40 38 34 35 37 34 40 43 44 42 42 40 40 43 47 49 53 49 54 65 76 81 80 78 71 65 61 55 54 53 54 51 46 43 39 34 31 28 26
45 49 47 46 42 39 36 28 25 23 25 27 34 38 39 37 37 37 36 38 41 48 54 49 47 53 63 74 74 79 72 66 64 56 54 56 58 51 48 42 38 34 34 33 29
46 48 46 44 39 37 33 22 18 18 20 22 27 30 33 34 32 32 30 31 33 36 46 52 47 46 51 60 70 76 73 65 65 60 56 57 58 49 47 41 38 36 38 35 31
46 45 44 42 39 35 29 18 16 13 12 12 14 18 22 24 30 26 25 28 30 33 40 52 49 46 42 48 57 69 69 64 66 63 60 60 55 46 46 41 38 37 36 34 31
45 43 42 39 37 33 21 17 13 11 11 12 15 22 26 23 21 19 20 23 21 26 35 42 51 48 44 46 53 62 68 71 66 64 62 59 51 46 42 41 40 37 35 33 31
42 41 42 38 35 31 20 19 17 16 14 15 15 13 14 13 16 14 16 24 22 24 30 29 46 46 45 46 49 53 66 77 66 66 62 58 50 46 45 43 41 37 34 32 30
40 40 41 40 35 30 21 19 20 20 19 17 19 16 12 9 16 13 10 13 18 24 30 40 37 42 39 45 47 49 59 70 66 67 66 57 52 48 45 43 41 37 35 32 30
37 37 39 40 37 32 23 17 20 15 15 18 19 13 9 6 9 13 6 8 16 23 32 42 36 37 32 33 33 41 50 63 60 63 57 55 51 47 44 42 38 36 35 32 31
35 34 36 37 38 35 28 18 19 17 19 22 21 14 6 8 3 11 10 9 13 22 25 31 36 35 33 32 28 40 46 53 57 55 55 53 51 47 44 39 38 38 35 32 31
34 31 33 35 36 35 32 25 19 16 18 20 16 17 8 8 6 1 10 10 15 16 22 28 27 34 31 28 30 39 43 48 51 51 50 50 51 50 42 38 37 35 34 32 29
33 30 30 32 34 35 33 28 22 18 20 20 20 21 10 9 8 10 6 11 11 20 20 21 30 35 19 28 31 39 38 42 48 48 48 49 50 46 36 34 35 35 33 32 30
33 29 28 29 31 33 34 29 24 20 20 19 22 19 24 18 17 17 14 9 14 14 22 16 25 27 30 29 30 29 37 37 43 45 44 44 45 40 35 38 34 31 31 32 29
32 29 26 27 29 30 30 30 28 25 23 14 15 13 16 13 15 13 9 17 18 17 21 24 20 24 31 30 33 37 34 38 36 41 42 43 43 40 35 34 32 30 29 28 26
30 30 26 25 26 28 28 29 29 27 22 20 13 9 7 8 9 8 11 16 12 15 12 11 14 27 33 40 37 41 34 36 37 42 41 40 38 36 32 30 27 26 25 25 27
27 28 26 23 23 25 26 28 29 28 26 21 20 18 18 14 12 13 10 9 7 10 7 12 25 32 36 38 41 33 39 36 41 43 40 36 32 28 23 21 23 22 22 23 25
24 25 27 23 20 22 25 24 24 27 27 24 23 21 19 17 13 14 15 17 19 18 20 24 25 32 29 34 39 35 33 33 32 33 31 29 25 21 17 16 16 17 19 19 20
21 23 25 25 20 19 22 22 23 23 22 25 26 25 19 16 13 12 14 14 16 17 19 21 25 29 29 31 34 36 32 31 31 30 29 24 21 19 17 16 16 16 17 20 23
17 20 22 21 22 18 17 18 20 21 21 20 20 23 24 20 18 15 15 15 13 13 16 18 26 29 30 31 34 36 31 30 29 26 24 23 20 17 17 15 15 17 18 21 25
14 16 18 20 20 21 16 15 16 18 19 19 18 19 23 23 22 20 19 17 15 15 13 15 24 27 29 33 35 35 32 31 28 27 22 17 15 12 10 11 14 18 22 25 29
11 12 14 16 19 19 19 15 13 14 16 17 18 18 18 18 20 23 23 20 17 13 12 17 22 26 29 33 35 34 33 31 29 26 21 15 9 8 11 15 19 23 28 31 33
9 9 11 12 14 17 18 18 16 13 13 14 15 17 17 16 19 20 22 22 21 16 12 13 15 17 20 23 28 29 29 28 26 24 21 16 14 17 19 23 25 26 28 31 32
8 7 9 9 10 12 14 16 16 16 14 11 12 13 14 15 16 17 18 20 22 22 18 14 12 12 13 17 21 22 20 21 21 21 20 20 18 15 19 20 22 22 24 27 29
9 7 7 7 7 8 9 11 13 15 15 14 13 11 11 12 13 14 15 15 16 18 19 17 15 15 14 13 13 13 12 11 10 8 9 10 11 13 13 15 17 20 24 29 32
11 10 9 7 7 5 5 6 8 10 12 13 13 14 14 13 12 11 11 12 13 13 13 12 11 10 10 9 8 8 7 6 5 4 4 5 7 9 11 14 19 24 28 33 39
Wind_Direction
311 315 314 313 308 298 288 279 270 263 263 263 265 263 266 262 264 268 269 252 245 238 234 233 232 231 231 229 228 230 231 232 235 236 228 229 238 241 244 247 252 253 258 274 289
323 321 321 317 311 305 297 288 277 264 260 261 262 259 255 261 264 258 261 256 251 242 237 233 232 231 230 229 228 228 230 232 233 235 227 229 236 240 242 246 250 251 257 270 284
328 327 324 320 316 312 304 295 285 276 268 261 257 262 259 262 261 261 257 257 251 248 241 234 231 230 229 228 226 226 227 231 231 229 227 227 232 236 238 242 249 253 258 265 280
331 331 328 326 324 318 313 306 296 280 268 259 250 260 266 263 264 263 263 257 251 246 240 233 229 231 230 227 226 225 223 227 228 226 225 225 227 234 238 244 249 250 256 264 271
336 335 334 334 331 326 323 312 306 295 273 262 254 261 264 264 266 270 266 255 249 245 236 228 226 226 227 228 226 224 223 224 225 224 225 228 230 230 236 239 244 248 252 259 268
341 340 341 341 335 337 334 329 322 303 282 271 264 263 267 269 272 272 265 247 247 241 228 221 219 219 220 224 225 223 223 222 224 222 223 228 232 232 237 239 240 242 252 258 260
346 345 346 346 343 347 339 339 336 320 303 288 273 269 269 272 270 263 255 239 241 231 219 221 223 219 217 216 216 220 220 220 221 222 223 227 231 230 235 234 237 239 248 253 255
350 350 351 351 348 353 346 343 345 333 341 327 307 289 278 266 258 251 244 233 234 229 222 216 225 223 217 215 216 215 216 216 217 220 222 226 228 228 230 232 235 237 243 247 252
353 354 355 356 353 355 352 354 356 4 1 359 344 328 317 269 240 239 246 233 230 220 212 208 219 223 220 215 214 213 213 217 214 218 221 224 223 223 225 229 233 235 240 245 250
358 357 359 360 358 355 349 347 356 4 359 357 356 354 348 263 233 211 245 227 225 213 205 196 202 211 211 210 215 214 213 216 215 216 219 220 221 222 224 228 232 233 238 244 248
1 0 2 4 5 2 354 335 343 352 349 4 16 29 10 351 258 218 194 198 199 203 201 205 206 212 211 212 213 210 213 215 210 216 217 221 222 221 226 228 233 236 240 243 247
3 4 5 6 9 9 7 354 343 344 346 352 2 29 28 33 355 200 192 166 179 207 206 204 207 202 199 204 205 203 206 209 205 209 211 215 219 222 224 227 229 232 236 243 248
4 6 8 7 9 10 9 11 2 353 346 354 15 15 25 32 50 67 203 198 179 178 192 196 192 191 189 193 208 197 201 207 202 203 207 213 218 221 221 226 232 234 237 243 249
5 7 10 10 10 12 14 13 22 30 32 45 42 31 43 70 89 83 130 195 203 176 171 190 194 192 181 203 202 191 192 203 194 196 203 210 220 223 221 226 232 235 237 241 246
6 9 11 14 13 15 18 21 25 27 40 52 46 62 62 73 92 89 96 108 130 137 153 167 198 189 202 198 185 177 185 197 191 191 196 206 218 220 219 228 232 237 241 246 249
7 9 13 17 15 18 19 24 27 30 39 52 50 65 46 57 93 111 102 104 151 152 145 160 184 189 181 157 160 177 175 186 181 187 195 201 214 220 219 228 233 239 246 253 260
7 9 15 17 18 20 24 27 27 29 30 41 27 34 16 98 76 122 147 144 155 173 176 186 175 171 149 157 168 173 172 167 176 183 191 197 206 216 219 228 236 242 248 255 259
8 9 16 19 22 23 27 31 35 39 41 41 48 66 66 73 89 102 138 162 137 139 146 151 155 150 158 167 168 170 158 170 174 181 187 195 204 214 218 226 232 243 249 253 258
7 10 17 21 23 26 27 29 35 44 50 49 47 48 46 36 71 100 104 111 117 122 129 130 143 148 177 154 173 160 167 171 170 173 181 190 197 207 216 225 231 235 244 256 267
7 9 19 18 23 29 32 30 35 41 46 53 55 48 50 48 56 79 95 109 119 122 130 134 147 147 153 164 168 171 167 169 165 171 175 177 187 199 211 229 244 252 262 268 273
6 8 18 19 26 30 35 32 37 42 46 52 62 65 57 58 57 69 77 83 96 116 134 142 144 148 154 163 162 160 159 162 159 165 170 175 186 198 214 232 250 262 268 269 269
2 8 15 20 27 34 36 36 37 43 47 49 58 72 74 69 65 63 69 72 78 98 111 145 146 157 159 161 162 158 152 152 154 158 164 172 188 204 224 241 251 254 258 265 268
354 4 11 20 29 33 38 41 43 45 48 52 53 61 73 77 82 76 68 69 78 86 101 146 155 161 163 164 164 160 155 153 153 157 160 167 189 198 217 232 244 251 257 263 273
337 352 5 12 26 34 38 41 45 51 54 55 59 59 62 71 80 81 84 80 76 72 89 132 150 156 163 167 171 168 162 158 158 163 169 174 190 212 227 238 250 264 278 285 288
314 327 344 357 14 32 39 44 48 50 59 65 65 67 67 66 68 75 87 86 91 86 86 98 122 141 155 165 170 172 168 166 168 174 187 197 213 234 247 263 276 286 293 299 302
316 304 314 330 347 12 35 39 47 54 56 62 71 75 79 80 80 81 82 83 94 100 105 103 113 109 116 123 133 138 142 146 157 183 206 232 255 271 287 294 300 303 308 312 315
287 298 285 292 309 330 1 33 42 46 54 59 63 68 73 76 80 87 92 98 102 104 108 113 111 113 119 128 135 141 147 154 171 211 244 270 285 292 296 303 308 314 316 318 317